Regional Weather Roundup
Issued by NWS Kansas City/Pleasant Hill, MO

Home | Current Version | Previous Version | Text Only | Print | Product List | Glossary On
Versions: 1 2 3 4 5 6 7 8 9 10 11 12 13 14 15 16 17 18 19 20 21 22 23 24 25 26 27 28 29 30 31 32 33 34 35 36 37 38 39 40 41 42 43 44 45 46 47 48 49 50
000
ASUS43 KEAX 281510
RWREAX

WEATHER ROUNDUP FOR EASTERN KANSAS AND NORTHWEST MISSOURI
NATIONAL WEATHER SERVICE KANSAS CITY/PLEASANT HILL MO
1000 AM CDT FRI AUG 28 2015

KSZ040-057-103>105-MOZ028-029-037-043-281600-
...KANSAS CITY METROPOLITAN AREA...

CITY           SKY/WX    TMP DP  RH WIND       PRES   REMARKS
K.C. INTL      CLOUDY    72  63  73 S16       29.97S
K.C. DOWNTOWN  CLOUDY    72  64  76 S10       29.97S
LEES SUMMIT    CLOUDY    71  63  75 S10G23    29.99S
OLATHE - IXD   CLOUDY    68  65  90 S13       29.98F
OLATHE - OJC   CLOUDY    68  64  87 S12       29.98S
LAWRENCE       CLOUDY    68  66  93 S9        29.96S

$$

MOZ001>008-011>017-020>025-030>033-038>040-044>046-053-054-281600-
...NORTHERN AND CENTRAL MISSOURI...

CITY           SKY/WX    TMP DP  RH WIND       PRES   REMARKS
ST. JOSEPH     CLOUDY    72  66  81 S16       29.93S
MOSBY          CLOUDY    70  63  78 S9        29.98S
WARRENSBURG    CLOUDY    72  61  68 S10G18    30.01R
WHITEMAN AFB   PTSUNNY   73  62  69 S15       30.00S
CLINTON          N/A     73  63  68 S14       30.02S
SEDALIA        CLOUDY    72  60  66 S14       30.03F
WARSAW         NOT AVBL
CHILLICOTHE      N/A     71  63  75 S9        30.01R
KIRKSVILLE     CLOUDY    67  60  78 SE12      30.04F

$$

MOZ041-047>049-056>058-063>065-088>090-097-281600-
...EASTERN AND SOUTHERN MISSOURI...

CITY           SKY/WX    TMP DP  RH WIND       PRES   REMARKS
ST. LOUIS INTL PTSUNNY   74  58  57 S12       30.13R
SPIRIT OF STL  MOSUNNY   73  60  63 S7        30.10S
COLUMBIA       CLOUDY    67  61  81 S13       30.07S
JEFFERSON CITY CLOUDY    69  60  73 SE7       30.07S
ROLLA          PTSUNNY   70  59  68 S13       30.09F
OSAGE BEACH    MOSUNNY   72  59  64 S12       30.08S
SPRINGFIELD    MOSUNNY   71  59  65 S15       30.08R
BRANSON        SUNNY     70  59  68 SE6       30.11S
JOPLIN         CLOUDY    72  62  71 S8        30.05R
WEST PLAINS    PTSUNNY   69  59  70 SE7       30.14R

$$

IAZ060-094-KSZ022-034>040-054-083-096-NEZ052-066-093-281600-
...KANSAS...SOUTHEAST NEBRASKA AND IOWA...

CITY           SKY/WX    TMP DP  RH WIND       PRES   REMARKS
TOPEKA         CLOUDY    71  68  90 S13       29.91F
MANHATTAN      MOSUNNY   77  68  73 SW15G24   29.89S
EMPORIA        PTSUNNY   68  67  96 S13       29.96S
CHANUTE        LGT RAIN  69  66  90 S10       30.01R
WICHITA        PTSUNNY   74  68  81 S16       29.94S
OMAHA          CLOUDY    71  67  87 S13       29.82F
LINCOLN        CLOUDY    75  68  78 SW14      29.83F
FALLS CITY     CLOUDY    72  66  81 S12       29.88F
LAMONI         CLOUDY    67  62  84 S12G22    29.96R
DES MOINES     LGT RAIN  64  60  87 SE17G24   29.91F

$$



USA.gov is the U.S. government's official web portal to all federal, state and local government web resources and services.